Location: Cañada de la Miga
(34.7595°N, 106.2317°W)
Time: 16:07:59
(UTC+00:00)

A-11 Canister half - Pass Details

Date: 09 December 2021
Orbit: 1516 x 1684 km, 47.2° (Epoch: 17 January)

Event Time Altitude Azimuth Distance (km) Brightness Sun altitude
Exits shadow 09:14:16 11° 125° (SE) 3,654 11.2 -57.9°
Maximum altitude 09:15:00 11° 121° (ESE) 3,650 11.2 -57.8°
Drops below altitude 10° 09:17:15 10° 106° (ESE) 3,749 11.3 -57.3°
Sets 09:23:46 0° 75° (ENE) 4,785 12.1 -56.0°
